Location: Brusselsch Zeekanaal
(50.8667°N, 4.3667°E)
Time: 03:02:02
(UTC+00:00)

NOSS 3-1 (A) - Pass Details

Date: 08 November 2025
Orbit: 621 x 1586 km, 63.4° (Epoch: 02 December)

Event Time Altitude Azimuth Distance (km) Brightness Sun altitude
Exits shadow 05:07:17 - 212° (SSW) 2,951 5.8 -15.8°
Reaches altitude 10° 05:09:24 10° 210° (SSW) 2,106 5.1 -15.5°
Maximum altitude 05:14:04 68° 128° (SE) 818 3.3 -14.7°
Drops below altitude 10° 05:19:49 10° 47° (NE) 2,571 6.2 -13.8°
Sets 05:22:39 0° 45° (NE) 3,670 7.0 -13.4°
